When you browse on this site, cookies collect data to enhance your experience and personalize the content and advertising you see.
Visit our Privacy Policy to learn more. By continuing to use the site, you agree to this use of cookies and data.

Meteo pe oră la Blagoevgrad

Astăzi, 5 Iulie, Duminică

Timp Temperatura Precipitaţii Vânt Presiune Umiditate
00:00 +21°C° 0 mm 1 m/s 719 mmHg 86%
01:00 +20°C° 0 mm 1 m/s 719 mmHg 87%
02:00 +19°C° 0 mm 2 m/s 719 mmHg 88%
03:00 +19°C° 0 mm 2 m/s 719 mmHg 88%
04:00 +19°C° 0 mm 1 m/s 719 mmHg 88%
05:00 +19°C° 0 mm 1 m/s 718 mmHg 88%
06:00 +20°C° 0 mm 1 m/s 719 mmHg 85%
07:00 +21°C° 0 mm 2 m/s 719 mmHg 81%
08:00 +24°C° 0 mm 2 m/s 720 mmHg 77%
09:00 +25°C° 0.4 mm 2 m/s 720 mmHg 74%
10:00 +26°C° 0.4 mm 2 m/s 720 mmHg 72%
11:00 +27°C° 0.4 mm 2 m/s 720 mmHg 69%
12:00 +28°C° 1.4 mm 2 m/s 719 mmHg 67%
13:00 +28°C° 1.4 mm 2 m/s 719 mmHg 65%
14:00 +28°C° 0 mm 2 m/s 719 mmHg 63%
15:00 +28°C° 1 mm 2 m/s 719 mmHg 64%
16:00 +28°C° 1 mm 2 m/s 718 mmHg 64%
17:00 +28°C° 1 mm 2 m/s 718 mmHg 64%
18:00 +26°C° 0.5 mm 2 m/s 718 mmHg 71%
19:00 +25°C° 0.5 mm 2 m/s 718 mmHg 79%
20:00 +23°C° 0.5 mm 1 m/s 718 mmHg 86%
21:00 +22°C° 0.2 mm 1 m/s 718 mmHg 87%
22:00 +21°C° 0.2 mm 2 m/s 718 mmHg 88%
23:00 +20°C° 0.2 mm 2 m/s 718 mmHg 89%

Mâine, 6 Iulie, Luni

Timp Temperatura Precipitaţii Vânt Presiune Umiditate
00:00 +20°C° 0.1 mm 2 m/s 718 mmHg 90%
01:00 +20°C° 0.1 mm 1 m/s 718 mmHg 91%
02:00 +20°C° 0.1 mm 1 m/s 718 mmHg 92%
03:00 +20°C° 0 mm 1 m/s 717 mmHg 92%
04:00 +20°C° 0 mm 1 m/s 717 mmHg 92%
05:00 +19°C° 0 mm 1 m/s 717 mmHg 93%
06:00 +20°C° 0 mm 2 m/s 717 mmHg 89%
07:00 +21°C° 0 mm 2 m/s 717 mmHg 86%
08:00 +24°C° 0 mm 2 m/s 717 mmHg 82%
09:00 +25°C° 0.1 mm 2 m/s 717 mmHg 76%
10:00 +27°C° 0.1 mm 2 m/s 717 mmHg 70%
11:00 +28°C° 0.1 mm 2 m/s 717 mmHg 64%
12:00 +29°C° 0.5 mm 2 m/s 716 mmHg 63%
13:00 +29°C° 0.5 mm 2 m/s 716 mmHg 62%
14:00 +30°C° 0.5 mm 2 m/s 716 mmHg 61%
15:00 +30°C° 0.6 mm 2 m/s 715 mmHg 62%
16:00 +29°C° 0.6 mm 2 m/s 715 mmHg 63%
17:00 +29°C° 0.6 mm 2 m/s 715 mmHg 64%
18:00 +27°C° 0.3 mm 2 m/s 714 mmHg 71%
19:00 +26°C° 0.3 mm 2 m/s 714 mmHg 77%
20:00 +24°C° 0.3 mm 1 m/s 714 mmHg 84%
21:00 +23°C° 0 mm 1 m/s 714 mmHg 84%
22:00 +22°C° 0 mm 1 m/s 714 mmHg 85%
23:00 +22°C° 0 mm 1 m/s 714 mmHg 85%

Poimâine, 7 Iulie, Marţi

Timp Temperatura Precipitaţii Vânt Presiune Umiditate
00:00 +21°C° 0 mm 1 m/s 714 mmHg 86%
01:00 +21°C° 0 mm 1 m/s 714 mmHg 86%
02:00 +21°C° 0 mm 1 m/s 714 mmHg 86%
03:00 +20°C° 0 mm 1 m/s 714 mmHg 87%
04:00 +20°C° 0 mm 1 m/s 714 mmHg 88%
05:00 +20°C° 0 mm 1 m/s 714 mmHg 88%
06:00 +20°C° 0.1 mm 2 m/s 714 mmHg 85%
07:00 +23°C° 0.1 mm 2 m/s 715 mmHg 82%
08:00 +25°C° 0.1 mm 2 m/s 716 mmHg 79%
09:00 +25°C° 0.3 mm 3 m/s 716 mmHg 77%
10:00 +25°C° 0.3 mm 4 m/s 716 mmHg 76%
11:00 +26°C° 0.3 mm 4 m/s 717 mmHg 74%
12:00 +26°C° 0.2 mm 4 m/s 717 mmHg 71%
13:00 +26°C° 0.2 mm 4 m/s 717 mmHg 68%
14:00 +27°C° 0.2 mm 4 m/s 717 mmHg 65%
15:00 +26°C° 0.2 mm 4 m/s 717 mmHg 67%
16:00 +25°C° 0.2 mm 4 m/s 717 mmHg 68%
17:00 +25°C° 0.2 mm 4 m/s 717 mmHg 70%
18:00 +22°C° 0 mm 4 m/s 718 mmHg 75%
19:00 +20°C° 0 mm 3 m/s 718 mmHg 80%
20:00 +18°C° 0 mm 3 m/s 718 mmHg 85%
21:00 +17°C° 0 mm 2 m/s 719 mmHg 86%
22:00 +16°C° 0 mm 2 m/s 719 mmHg 87%
23:00 +15°C° 0 mm 2 m/s 719 mmHg 89%

8 Iulie, Miercuri

Timp Temperatura Precipitaţii Vânt Presiune Umiditate
00:00 +14°C° 0 mm 2 m/s 720 mmHg 90%
01:00 +14°C° 0 mm 2 m/s 720 mmHg 90%
02:00 +13°C° 0 mm 2 m/s 720 mmHg 91%
03:00 +13°C° 0 mm 2 m/s 720 mmHg 91%
04:00 +12°C° 0 mm 2 m/s 720 mmHg 91%
05:00 +12°C° 0 mm 1 m/s 720 mmHg 91%
06:00 +13°C° 0 mm 2 m/s 721 mmHg 85%
07:00 +15°C° 0 mm 2 m/s 721 mmHg 80%
08:00 +16°C° 0 mm 2 m/s 721 mmHg 74%
09:00 +18°C° 0 mm 2 m/s 721 mmHg 68%
10:00 +20°C° 0 mm 2 m/s 722 mmHg 62%
11:00 +22°C° 0 mm 3 m/s 722 mmHg 56%
12:00 +24°C° 0 mm 3 m/s 722 mmHg 54%
13:00 +25°C° 0 mm 2 m/s 722 mmHg 51%
14:00 +26°C° 0 mm 2 m/s 722 mmHg 49%
15:00 +26°C° 0 mm 2 m/s 722 mmHg 50%
16:00 +26°C° 0 mm 2 m/s 721 mmHg 51%
17:00 +26°C° 0 mm 2 m/s 721 mmHg 52%
18:00 +24°C° 0 mm 2 m/s 721 mmHg 61%
19:00 +22°C° 0 mm 1 m/s 721 mmHg 70%
20:00 +20°C° 0 mm 1 m/s 721 mmHg 79%
21:00 +19°C° 0 mm 1 m/s 722 mmHg 81%
22:00 +18°C° 0 mm 1 m/s 722 mmHg 83%
23:00 +16°C° 0 mm 1 m/s 722 mmHg 85%

9 Iulie, Joi

Timp Temperatura Precipitaţii Vânt Presiune Umiditate
00:00 +16°C° 0 mm 1 m/s 722 mmHg 86%
01:00 +16°C° 0 mm 1 m/s 722 mmHg 87%
02:00 +15°C° 0 mm 1 m/s 723 mmHg 89%
03:00 +15°C° 0 mm 1 m/s 722 mmHg 87%
04:00 +14°C° 0 mm 1 m/s 722 mmHg 86%
05:00 +14°C° 0 mm 1 m/s 722 mmHg 85%
06:00 +16°C° 0 mm 1 m/s 723 mmHg 80%
07:00 +19°C° 0 mm 1 m/s 723 mmHg 74%
08:00 +21°C° 0 mm 1 m/s 724 mmHg 69%
09:00 +23°C° 0 mm 1 m/s 724 mmHg 63%
10:00 +25°C° 0 mm 2 m/s 724 mmHg 57%
11:00 +26°C° 0 mm 2 m/s 724 mmHg 51%
12:00 +27°C° 0 mm 2 m/s 724 mmHg 49%
13:00 +28°C° 0 mm 2 m/s 723 mmHg 47%
14:00 +28°C° 0 mm 2 m/s 723 mmHg 44%
15:00 +28°C° 0 mm 2 m/s 723 mmHg 46%
16:00 +28°C° 0 mm 2 m/s 723 mmHg 48%
17:00 +28°C° 0 mm 2 m/s 722 mmHg 49%
18:00 +26°C° 0 mm 2 m/s 722 mmHg 57%
19:00 +24°C° 0 mm 1 m/s 722 mmHg 64%
20:00 +22°C° 0 mm 1 m/s 722 mmHg 71%
21:00 +21°C° 0 mm 1 m/s 722 mmHg 73%
22:00 +20°C° 0 mm 1 m/s 723 mmHg 75%
23:00 +19°C° 0 mm 1 m/s 723 mmHg 77%

10 Iulie, Vineri

Timp Temperatura Precipitaţii Vânt Presiune Umiditate
00:00 +19°C° 0 mm 1 m/s 723 mmHg 79%
01:00 +19°C° 0 mm 1 m/s 723 mmHg 80%
02:00 +18°C° 0 mm 1 m/s 723 mmHg 82%
03:00 +18°C° 0 mm 1 m/s 722 mmHg 81%
04:00 +16°C° 0 mm 1 m/s 722 mmHg 81%
05:00 +16°C° 0 mm 1 m/s 722 mmHg 81%
06:00 +19°C° 0 mm 1 m/s 722 mmHg 76%
07:00 +21°C° 0 mm 1 m/s 723 mmHg 71%
08:00 +23°C° 0 mm 1 m/s 723 mmHg 66%
09:00 +25°C° 0 mm 1 m/s 723 mmHg 61%
10:00 +26°C° 0 mm 1 m/s 723 mmHg 57%
11:00 +28°C° 0 mm 1 m/s 723 mmHg 53%
12:00 +29°C° 0 mm 1 m/s 723 mmHg 51%
13:00 +29°C° 0 mm 1 m/s 722 mmHg 49%
14:00 +30°C° 0 mm 1 m/s 722 mmHg 48%
15:00 +30°C° 0 mm 1 m/s 722 mmHg 49%
16:00 +30°C° 0 mm 1 m/s 721 mmHg 50%
17:00 +29°C° 0 mm 1 m/s 721 mmHg 52%
18:00 +27°C° 0 mm 1 m/s 721 mmHg 59%
19:00 +25°C° 0 mm 1 m/s 721 mmHg 66%
20:00 +23°C° 0 mm 1 m/s 721 mmHg 73%
21:00 +22°C° 0 mm 1 m/s 721 mmHg 75%
22:00 +21°C° 0 mm 1 m/s 721 mmHg 77%
23:00 +20°C° 0 mm 1 m/s 721 mmHg 79%
Arată mai mult